Index of /20260424/WXO-DD/model_gdps/15km/12/048
Name Last modified Size Description
Parent Directory -
20260424T12Z_MSC_GDPS_AbsoluteVorticity_IsbL-0200_LatLon0.15_PT048H.grib2 2026-04-24 16:08 1.5M
20260424T12Z_MSC_GDPS_AbsoluteVorticity_IsbL-0250_LatLon0.15_PT048H.grib2 2026-04-24 16:08 1.3M
20260424T12Z_MSC_GDPS_AbsoluteVorticity_IsbL-0500_LatLon0.15_PT048H.grib2 2026-04-24 16:08 1.5M
20260424T12Z_MSC_GDPS_AbsoluteVorticity_IsbL-0700_LatLon0.15_PT048H.grib2 2026-04-24 16:08 1.6M
20260424T12Z_MSC_GDPS_AbsoluteVorticity_IsbL-0850_LatLon0.15_PT048H.grib2 2026-04-24 16:08 1.6M
20260424T12Z_MSC_GDPS_AirTemp-Max_AGL-2m_LatLon0.15_PT048H.grib2 2026-04-24 16:08 742K
20260424T12Z_MSC_GDPS_AirTemp-Min_AGL-2m_LatLon0.15_PT048H.grib2 2026-04-24 16:08 790K
20260424T12Z_MSC_GDPS_AirTemp_AGL-120m_LatLon0.15_PT048H.grib2 2026-04-24 16:08 909K
20260424T12Z_MSC_GDPS_AirTemp_AGL-2m_LatLon0.15_PT048H.grib2 2026-04-24 16:08 1.0M
20260424T12Z_MSC_GDPS_AirTemp_AGL-40m_LatLon0.15_PT048H.grib2 2026-04-24 16:08 814K
20260424T12Z_MSC_GDPS_AirTemp_AGL-80m_LatLon0.15_PT048H.grib2 2026-04-24 16:08 919K
20260424T12Z_MSC_GDPS_AirTemp_IsbL-0001_LatLon0.15_PT048H.grib2 2026-04-24 16:08 707K
20260424T12Z_MSC_GDPS_AirTemp_IsbL-0005_LatLon0.15_PT048H.grib2 2026-04-24 16:08 692K
20260424T12Z_MSC_GDPS_AirTemp_IsbL-0010_LatLon0.15_PT048H.grib2 2026-04-24 16:08 761K
20260424T12Z_MSC_GDPS_AirTemp_IsbL-0020_LatLon0.15_PT048H.grib2 2026-04-24 16:08 787K
20260424T12Z_MSC_GDPS_AirTemp_IsbL-0030_LatLon0.15_PT048H.grib2 2026-04-24 16:08 753K
20260424T12Z_MSC_GDPS_AirTemp_IsbL-0050_LatLon0.15_PT048H.grib2 2026-04-24 16:08 812K
20260424T12Z_MSC_GDPS_AirTemp_IsbL-0100_LatLon0.15_PT048H.grib2 2026-04-24 16:08 942K
20260424T12Z_MSC_GDPS_AirTemp_IsbL-0150_LatLon0.15_PT048H.grib2 2026-04-24 16:08 960K
20260424T12Z_MSC_GDPS_AirTemp_IsbL-0175_LatLon0.15_PT048H.grib2 2026-04-24 16:08 947K
20260424T12Z_MSC_GDPS_AirTemp_IsbL-0200_LatLon0.15_PT048H.grib2 2026-04-24 16:08 962K
20260424T12Z_MSC_GDPS_AirTemp_IsbL-0225_LatLon0.15_PT048H.grib2 2026-04-24 16:08 970K
20260424T12Z_MSC_GDPS_AirTemp_IsbL-0250_LatLon0.15_PT048H.grib2 2026-04-24 16:08 1.0M
20260424T12Z_MSC_GDPS_AirTemp_IsbL-0275_LatLon0.15_PT048H.grib2 2026-04-24 16:08 1.0M
20260424T12Z_MSC_GDPS_AirTemp_IsbL-0300_LatLon0.15_PT048H.grib2 2026-04-24 16:08 1.0M
20260424T12Z_MSC_GDPS_AirTemp_IsbL-0350_LatLon0.15_PT048H.grib2 2026-04-24 16:08 927K
20260424T12Z_MSC_GDPS_AirTemp_IsbL-0400_LatLon0.15_PT048H.grib2 2026-04-24 16:08 934K
20260424T12Z_MSC_GDPS_AirTemp_IsbL-0450_LatLon0.15_PT048H.grib2 2026-04-24 16:08 957K
20260424T12Z_MSC_GDPS_AirTemp_IsbL-0500_LatLon0.15_PT048H.grib2 2026-04-24 16:08 1.0M
20260424T12Z_MSC_GDPS_AirTemp_IsbL-0550_LatLon0.15_PT048H.grib2 2026-04-24 16:08 804K
20260424T12Z_MSC_GDPS_AirTemp_IsbL-0600_LatLon0.15_PT048H.grib2 2026-04-24 16:08 898K
20260424T12Z_MSC_GDPS_AirTemp_IsbL-0650_LatLon0.15_PT048H.grib2 2026-04-24 16:08 927K
20260424T12Z_MSC_GDPS_AirTemp_IsbL-0700_LatLon0.15_PT048H.grib2 2026-04-24 16:08 956K
20260424T12Z_MSC_GDPS_AirTemp_IsbL-0750_LatLon0.15_PT048H.grib2 2026-04-24 16:08 1.0M
20260424T12Z_MSC_GDPS_AirTemp_IsbL-0800_LatLon0.15_PT048H.grib2 2026-04-24 16:08 1.1M
20260424T12Z_MSC_GDPS_AirTemp_IsbL-0850_LatLon0.15_PT048H.grib2 2026-04-24 16:08 1.1M
20260424T12Z_MSC_GDPS_AirTemp_IsbL-0875_LatLon0.15_PT048H.grib2 2026-04-24 16:08 1.2M
20260424T12Z_MSC_GDPS_AirTemp_IsbL-0900_LatLon0.15_PT048H.grib2 2026-04-24 16:08 1.1M
20260424T12Z_MSC_GDPS_AirTemp_IsbL-0925_LatLon0.15_PT048H.grib2 2026-04-24 16:08 1.1M
20260424T12Z_MSC_GDPS_AirTemp_IsbL-0950_LatLon0.15_PT048H.grib2 2026-04-24 16:08 1.2M
20260424T12Z_MSC_GDPS_AirTemp_IsbL-0970_LatLon0.15_PT048H.grib2 2026-04-24 16:08 1.2M
20260424T12Z_MSC_GDPS_AirTemp_IsbL-0985_LatLon0.15_PT048H.grib2 2026-04-24 16:08 1.2M
20260424T12Z_MSC_GDPS_AirTemp_IsbL-1000_LatLon0.15_PT048H.grib2 2026-04-24 16:08 1.1M
20260424T12Z_MSC_GDPS_AirTemp_IsbL-1015_LatLon0.15_PT048H.grib2 2026-04-24 16:08 1.1M
20260424T12Z_MSC_GDPS_Albedo_Sfc_LatLon0.15_PT048H.grib2 2026-04-24 16:08 242K
20260424T12Z_MSC_GDPS_CAPE_Sfc_LatLon0.15_PT048H.grib2 2026-04-24 16:08 3.9M
20260424T12Z_MSC_GDPS_CIN_Sfc_LatLon0.15_PT048H.grib2 2026-04-24 16:08 2.9M
20260424T12Z_MSC_GDPS_CloudWater_EAtm_LatLon0.15_PT048H.grib2 2026-04-24 16:08 538K
20260424T12Z_MSC_GDPS_ConvectivePrecip-Accum_Sfc_LatLon0.15_PT048H.grib2 2026-04-24 16:08 2.9M
20260424T12Z_MSC_GDPS_DewPointDepression_AGL-2m_LatLon0.15_PT048H.grib2 2026-04-24 16:08 757K
20260424T12Z_MSC_GDPS_DewPointDepression_IsbL-0010_LatLon0.15_PT048H.grib2 2026-04-24 16:08 38K
20260424T12Z_MSC_GDPS_DewPointDepression_IsbL-0020_LatLon0.15_PT048H.grib2 2026-04-24 16:08 75K
20260424T12Z_MSC_GDPS_DewPointDepression_IsbL-0030_LatLon0.15_PT048H.grib2 2026-04-24 16:08 59K
20260424T12Z_MSC_GDPS_DewPointDepression_IsbL-0050_LatLon0.15_PT048H.grib2 2026-04-24 16:08 364K
20260424T12Z_MSC_GDPS_DewPointDepression_IsbL-0100_LatLon0.15_PT048H.grib2 2026-04-24 16:08 392K
20260424T12Z_MSC_GDPS_DewPointDepression_IsbL-0150_LatLon0.15_PT048H.grib2 2026-04-24 16:08 458K
20260424T12Z_MSC_GDPS_DewPointDepression_IsbL-0175_LatLon0.15_PT048H.grib2 2026-04-24 16:08 548K
20260424T12Z_MSC_GDPS_DewPointDepression_IsbL-0200_LatLon0.15_PT048H.grib2 2026-04-24 16:08 647K
20260424T12Z_MSC_GDPS_DewPointDepression_IsbL-0225_LatLon0.15_PT048H.grib2 2026-04-24 16:08 754K
20260424T12Z_MSC_GDPS_DewPointDepression_IsbL-0250_LatLon0.15_PT048H.grib2 2026-04-24 16:08 857K
20260424T12Z_MSC_GDPS_DewPointDepression_IsbL-0275_LatLon0.15_PT048H.grib2 2026-04-24 16:08 890K
20260424T12Z_MSC_GDPS_DewPointDepression_IsbL-0300_LatLon0.15_PT048H.grib2 2026-04-24 16:08 935K
20260424T12Z_MSC_GDPS_DewPointDepression_IsbL-0350_LatLon0.15_PT048H.grib2 2026-04-24 16:08 962K
20260424T12Z_MSC_GDPS_DewPointDepression_IsbL-0400_LatLon0.15_PT048H.grib2 2026-04-24 16:08 1.0M
20260424T12Z_MSC_GDPS_DewPointDepression_IsbL-0450_LatLon0.15_PT048H.grib2 2026-04-24 16:08 1.0M
20260424T12Z_MSC_GDPS_DewPointDepression_IsbL-0500_LatLon0.15_PT048H.grib2 2026-04-24 16:08 1.0M
20260424T12Z_MSC_GDPS_DewPointDepression_IsbL-0550_LatLon0.15_PT048H.grib2 2026-04-24 16:08 1.0M
20260424T12Z_MSC_GDPS_DewPointDepression_IsbL-0600_LatLon0.15_PT048H.grib2 2026-04-24 16:08 1.1M
20260424T12Z_MSC_GDPS_DewPointDepression_IsbL-0650_LatLon0.15_PT048H.grib2 2026-04-24 16:08 1.1M
20260424T12Z_MSC_GDPS_DewPointDepression_IsbL-0700_LatLon0.15_PT048H.grib2 2026-04-24 16:08 1.1M
20260424T12Z_MSC_GDPS_DewPointDepression_IsbL-0750_LatLon0.15_PT048H.grib2 2026-04-24 16:08 1.1M
20260424T12Z_MSC_GDPS_DewPointDepression_IsbL-0800_LatLon0.15_PT048H.grib2 2026-04-24 16:08 1.2M
20260424T12Z_MSC_GDPS_DewPointDepression_IsbL-0850_LatLon0.15_PT048H.grib2 2026-04-24 16:08 1.2M
20260424T12Z_MSC_GDPS_DewPointDepression_IsbL-0875_LatLon0.15_PT048H.grib2 2026-04-24 16:08 1.1M
20260424T12Z_MSC_GDPS_DewPointDepression_IsbL-0900_LatLon0.15_PT048H.grib2 2026-04-24 16:08 1.1M
20260424T12Z_MSC_GDPS_DewPointDepression_IsbL-0925_LatLon0.15_PT048H.grib2 2026-04-24 16:08 1.0M
20260424T12Z_MSC_GDPS_DewPointDepression_IsbL-0950_LatLon0.15_PT048H.grib2 2026-04-24 16:08 1.0M
20260424T12Z_MSC_GDPS_DewPointDepression_IsbL-0970_LatLon0.15_PT048H.grib2 2026-04-24 16:08 1.0M
20260424T12Z_MSC_GDPS_DewPointDepression_IsbL-0985_LatLon0.15_PT048H.grib2 2026-04-24 16:08 1.0M
20260424T12Z_MSC_GDPS_DewPointDepression_IsbL-1000_LatLon0.15_PT048H.grib2 2026-04-24 16:08 1.0M
20260424T12Z_MSC_GDPS_DewPointDepression_IsbL-1015_LatLon0.15_PT048H.grib2 2026-04-24 16:08 918K
20260424T12Z_MSC_GDPS_DewPoint_AGL-2m_LatLon0.15_PT048H.grib2 2026-04-24 16:08 612K
20260424T12Z_MSC_GDPS_DownwardLongwaveRadiationFlux-Accum_Sfc_LatLon0.15_PT048H.grib2 2026-04-24 16:08 821K
20260424T12Z_MSC_GDPS_DownwardShortwaveRadiationFlux-Accum_NTAtm_LatLon0.15_PT048H.grib2 2026-04-24 16:08 219K
20260424T12Z_MSC_GDPS_DownwardShortwaveRadiationFlux-Accum_Sfc_LatLon0.15_PT048H.grib2 2026-04-24 16:08 1.0M
20260424T12Z_MSC_GDPS_FreezingRain-Accum12h_Sfc_LatLon0.15_PT048H.grib2 2026-04-24 16:08 125K
20260424T12Z_MSC_GDPS_FreezingRain-Accum1h_Sfc_LatLon0.15_PT048H.grib2 2026-04-24 16:08 70K
20260424T12Z_MSC_GDPS_FreezingRain-Accum24h_Sfc_LatLon0.15_PT048H.grib2 2026-04-24 16:08 179K
20260424T12Z_MSC_GDPS_FreezingRain-Accum3h_Sfc_LatLon0.15_PT048H.grib2 2026-04-24 16:08 79K
20260424T12Z_MSC_GDPS_FreezingRain-Accum6h_Sfc_LatLon0.15_PT048H.grib2 2026-04-24 16:08 96K
20260424T12Z_MSC_GDPS_FreezingRain-Accum_Sfc_LatLon0.15_PT048H.grib2 2026-04-24 16:08 287K
20260424T12Z_MSC_GDPS_GeopotentialHeight_IsbL-0001_LatLon0.15_PT048H.grib2 2026-04-24 16:08 407K
20260424T12Z_MSC_GDPS_GeopotentialHeight_IsbL-0005_LatLon0.15_PT048H.grib2 2026-04-24 16:08 504K
20260424T12Z_MSC_GDPS_GeopotentialHeight_IsbL-0010_LatLon0.15_PT048H.grib2 2026-04-24 16:08 484K
20260424T12Z_MSC_GDPS_GeopotentialHeight_IsbL-0020_LatLon0.15_PT048H.grib2 2026-04-24 16:08 421K
20260424T12Z_MSC_GDPS_GeopotentialHeight_IsbL-0030_LatLon0.15_PT048H.grib2 2026-04-24 16:08 579K
20260424T12Z_MSC_GDPS_GeopotentialHeight_IsbL-0050_LatLon0.15_PT048H.grib2 2026-04-24 16:08 575K
20260424T12Z_MSC_GDPS_GeopotentialHeight_IsbL-0100_LatLon0.15_PT048H.grib2 2026-04-24 16:08 605K
20260424T12Z_MSC_GDPS_GeopotentialHeight_IsbL-0150_LatLon0.15_PT048H.grib2 2026-04-24 16:08 623K
20260424T12Z_MSC_GDPS_GeopotentialHeight_IsbL-0175_LatLon0.15_PT048H.grib2 2026-04-24 16:08 628K
20260424T12Z_MSC_GDPS_GeopotentialHeight_IsbL-0200_LatLon0.15_PT048H.grib2 2026-04-24 16:08 632K
20260424T12Z_MSC_GDPS_GeopotentialHeight_IsbL-0225_LatLon0.15_PT048H.grib2 2026-04-24 16:08 636K
20260424T12Z_MSC_GDPS_GeopotentialHeight_IsbL-0250_LatLon0.15_PT048H.grib2 2026-04-24 16:08 641K
20260424T12Z_MSC_GDPS_GeopotentialHeight_IsbL-0275_LatLon0.15_PT048H.grib2 2026-04-24 16:08 642K
20260424T12Z_MSC_GDPS_GeopotentialHeight_IsbL-0300_LatLon0.15_PT048H.grib2 2026-04-24 16:08 643K
20260424T12Z_MSC_GDPS_GeopotentialHeight_IsbL-0350_LatLon0.15_PT048H.grib2 2026-04-24 16:08 631K
20260424T12Z_MSC_GDPS_GeopotentialHeight_IsbL-0400_LatLon0.15_PT048H.grib2 2026-04-24 16:08 623K
20260424T12Z_MSC_GDPS_GeopotentialHeight_IsbL-0450_LatLon0.15_PT048H.grib2 2026-04-24 16:08 613K
20260424T12Z_MSC_GDPS_GeopotentialHeight_IsbL-0500_LatLon0.15_PT048H.grib2 2026-04-24 16:08 534K
20260424T12Z_MSC_GDPS_GeopotentialHeight_IsbL-0550_LatLon0.15_PT048H.grib2 2026-04-24 16:08 526K
20260424T12Z_MSC_GDPS_GeopotentialHeight_IsbL-0600_LatLon0.15_PT048H.grib2 2026-04-24 16:08 522K
20260424T12Z_MSC_GDPS_GeopotentialHeight_IsbL-0650_LatLon0.15_PT048H.grib2 2026-04-24 16:08 691K
20260424T12Z_MSC_GDPS_GeopotentialHeight_IsbL-0700_LatLon0.15_PT048H.grib2 2026-04-24 16:08 692K
20260424T12Z_MSC_GDPS_GeopotentialHeight_IsbL-0750_LatLon0.15_PT048H.grib2 2026-04-24 16:08 697K
20260424T12Z_MSC_GDPS_GeopotentialHeight_IsbL-0800_LatLon0.15_PT048H.grib2 2026-04-24 16:08 707K
20260424T12Z_MSC_GDPS_GeopotentialHeight_IsbL-0850_LatLon0.15_PT048H.grib2 2026-04-24 16:08 709K
20260424T12Z_MSC_GDPS_GeopotentialHeight_IsbL-0875_LatLon0.15_PT048H.grib2 2026-04-24 16:08 713K
20260424T12Z_MSC_GDPS_GeopotentialHeight_IsbL-0900_LatLon0.15_PT048H.grib2 2026-04-24 16:08 721K
20260424T12Z_MSC_GDPS_GeopotentialHeight_IsbL-0925_LatLon0.15_PT048H.grib2 2026-04-24 16:08 728K
20260424T12Z_MSC_GDPS_GeopotentialHeight_IsbL-0950_LatLon0.15_PT048H.grib2 2026-04-24 16:08 735K
20260424T12Z_MSC_GDPS_GeopotentialHeight_IsbL-0970_LatLon0.15_PT048H.grib2 2026-04-24 16:08 746K
20260424T12Z_MSC_GDPS_GeopotentialHeight_IsbL-0985_LatLon0.15_PT048H.grib2 2026-04-24 16:08 763K
20260424T12Z_MSC_GDPS_GeopotentialHeight_IsbL-1000_LatLon0.15_PT048H.grib2 2026-04-24 16:08 787K
20260424T12Z_MSC_GDPS_GeopotentialHeight_IsbL-1015_LatLon0.15_PT048H.grib2 2026-04-24 16:08 807K
20260424T12Z_MSC_GDPS_Humidex_Sfc_LatLon0.15_PT048H.grib2 2026-04-24 16:08 5.3M
20260424T12Z_MSC_GDPS_IcePellets-Accum12h_Sfc_LatLon0.15_PT048H.grib2 2026-04-24 16:08 35K
20260424T12Z_MSC_GDPS_IcePellets-Accum1h_Sfc_LatLon0.15_PT048H.grib2 2026-04-24 16:08 19K
20260424T12Z_MSC_GDPS_IcePellets-Accum24h_Sfc_LatLon0.15_PT048H.grib2 2026-04-24 16:08 51K
20260424T12Z_MSC_GDPS_IcePellets-Accum3h_Sfc_LatLon0.15_PT048H.grib2 2026-04-24 16:08 21K
20260424T12Z_MSC_GDPS_IcePellets-Accum6h_Sfc_LatLon0.15_PT048H.grib2 2026-04-24 16:08 25K
20260424T12Z_MSC_GDPS_IcePellets-Accum_Sfc_LatLon0.15_PT048H.grib2 2026-04-24 16:08 94K
20260424T12Z_MSC_GDPS_KIndex_Sfc_LatLon0.15_PT048H.grib2 2026-04-24 16:08 6.4M
20260424T12Z_MSC_GDPS_LatentHeatNetFlux_Sfc_LatLon0.15_PT048H.grib2 2026-04-24 16:08 711K
20260424T12Z_MSC_GDPS_LiftedIndex-MU-VT_IsbL-0500_LatLon0.15_PT048H.grib2 2026-04-24 16:08 5.4M
20260424T12Z_MSC_GDPS_NetLongwaveRadiationFlux-Accum_Sfc_LatLon0.15_PT048H.grib2 2026-04-24 16:08 1.1M
20260424T12Z_MSC_GDPS_NetShortwaveRadiationFlux-Accum_Sfc_LatLon0.15_PT048H.grib2 2026-04-24 16:08 1.0M
20260424T12Z_MSC_GDPS_O3MixingRatio_LatLon0.15_PT048H.grib2 2026-04-24 16:49 2.3M
20260424T12Z_MSC_GDPS_O3_EAtm_LatLon0.15_PT048H.grib2 2026-04-24 16:49 2.5M
20260424T12Z_MSC_GDPS_PlanetaryBoundaryLayerHeight_Sfc_LatLon0.15_PT048H.grib2 2026-04-24 16:08 2.5M
20260424T12Z_MSC_GDPS_Precip-Accum12h_Sfc_LatLon0.15_PT048H.grib2 2026-04-24 16:08 4.4M
20260424T12Z_MSC_GDPS_Precip-Accum1h_Sfc_LatLon0.15_PT048H.grib2 2026-04-24 16:08 3.3M
20260424T12Z_MSC_GDPS_Precip-Accum24h_Sfc_LatLon0.15_PT048H.grib2 2026-04-24 16:08 4.6M
20260424T12Z_MSC_GDPS_Precip-Accum3h_Sfc_LatLon0.15_PT048H.grib2 2026-04-24 16:08 3.6M
20260424T12Z_MSC_GDPS_Precip-Accum6h_Sfc_LatLon0.15_PT048H.grib2 2026-04-24 16:08 3.9M
20260424T12Z_MSC_GDPS_Precip-Accum_Sfc_LatLon0.15_PT048H.grib2 2026-04-24 16:08 4.5M
20260424T12Z_MSC_GDPS_PrecipRate_Sfc_LatLon0.15_PT048H.grib2 2026-04-24 16:08 3.2M
20260424T12Z_MSC_GDPS_PrecipType-Instant_Sfc_LatLon0.15_PT048H.grib2 2026-04-24 16:08 1.7M
20260424T12Z_MSC_GDPS_Pressure_MSL_LatLon0.15_PT048H.grib2 2026-04-24 16:08 722K
20260424T12Z_MSC_GDPS_Pressure_PVU-1.5_LatLon0.15_PT048H.grib2 2026-04-24 16:08 5.8M
20260424T12Z_MSC_GDPS_Pressure_PVU-1_LatLon0.15_PT048H.grib2 2026-04-24 16:08 6.0M
20260424T12Z_MSC_GDPS_Pressure_PVU-2_LatLon0.15_PT048H.grib2 2026-04-24 16:08 5.6M
20260424T12Z_MSC_GDPS_Pressure_Sfc_LatLon0.15_PT048H.grib2 2026-04-24 16:08 1.1M
20260424T12Z_MSC_GDPS_RadiativeTemp_Sfc_LatLon0.15_PT048H.grib2 2026-04-24 16:08 501K
20260424T12Z_MSC_GDPS_Rain-Accum12h_Sfc_LatLon0.15_PT048H.grib2 2026-04-24 16:08 2.9M
20260424T12Z_MSC_GDPS_Rain-Accum1h_Sfc_LatLon0.15_PT048H.grib2 2026-04-24 16:08 1.7M
20260424T12Z_MSC_GDPS_Rain-Accum24h_Sfc_LatLon0.15_PT048H.grib2 2026-04-24 16:08 3.2M
20260424T12Z_MSC_GDPS_Rain-Accum3h_Sfc_LatLon0.15_PT048H.grib2 2026-04-24 16:08 1.9M
20260424T12Z_MSC_GDPS_Rain-Accum6h_Sfc_LatLon0.15_PT048H.grib2 2026-04-24 16:08 2.5M
20260424T12Z_MSC_GDPS_Rain-Accum_Sfc_LatLon0.15_PT048H.grib2 2026-04-24 16:08 3.4M
20260424T12Z_MSC_GDPS_RelativeHumidity_AGL-2m_LatLon0.15_PT048H.grib2 2026-04-24 16:08 1.1M
20260424T12Z_MSC_GDPS_RelativeHumidity_IsbL-0010_LatLon0.15_PT048H.grib2 2026-04-24 16:08 272K
20260424T12Z_MSC_GDPS_RelativeHumidity_IsbL-0020_LatLon0.15_PT048H.grib2 2026-04-24 16:08 282K
20260424T12Z_MSC_GDPS_RelativeHumidity_IsbL-0030_LatLon0.15_PT048H.grib2 2026-04-24 16:08 347K
20260424T12Z_MSC_GDPS_RelativeHumidity_IsbL-0050_LatLon0.15_PT048H.grib2 2026-04-24 16:08 421K
20260424T12Z_MSC_GDPS_RelativeHumidity_IsbL-0100_LatLon0.15_PT048H.grib2 2026-04-24 16:08 494K
20260424T12Z_MSC_GDPS_RelativeHumidity_IsbL-0150_LatLon0.15_PT048H.grib2 2026-04-24 16:08 648K
20260424T12Z_MSC_GDPS_RelativeHumidity_IsbL-0175_LatLon0.15_PT048H.grib2 2026-04-24 16:08 766K
20260424T12Z_MSC_GDPS_RelativeHumidity_IsbL-0200_LatLon0.15_PT048H.grib2 2026-04-24 16:08 688K
20260424T12Z_MSC_GDPS_RelativeHumidity_IsbL-0225_LatLon0.15_PT048H.grib2 2026-04-24 16:08 775K
20260424T12Z_MSC_GDPS_RelativeHumidity_IsbL-0250_LatLon0.15_PT048H.grib2 2026-04-24 16:08 859K
20260424T12Z_MSC_GDPS_RelativeHumidity_IsbL-0275_LatLon0.15_PT048H.grib2 2026-04-24 16:08 889K
20260424T12Z_MSC_GDPS_RelativeHumidity_IsbL-0300_LatLon0.15_PT048H.grib2 2026-04-24 16:08 938K
20260424T12Z_MSC_GDPS_RelativeHumidity_IsbL-0350_LatLon0.15_PT048H.grib2 2026-04-24 16:08 961K
20260424T12Z_MSC_GDPS_RelativeHumidity_IsbL-0400_LatLon0.15_PT048H.grib2 2026-04-24 16:08 1.0M
20260424T12Z_MSC_GDPS_RelativeHumidity_IsbL-0450_LatLon0.15_PT048H.grib2 2026-04-24 16:08 1.0M
20260424T12Z_MSC_GDPS_RelativeHumidity_IsbL-0500_LatLon0.15_PT048H.grib2 2026-04-24 16:08 1.0M
20260424T12Z_MSC_GDPS_RelativeHumidity_IsbL-0550_LatLon0.15_PT048H.grib2 2026-04-24 16:08 1.1M
20260424T12Z_MSC_GDPS_RelativeHumidity_IsbL-0600_LatLon0.15_PT048H.grib2 2026-04-24 16:08 1.1M
20260424T12Z_MSC_GDPS_RelativeHumidity_IsbL-0650_LatLon0.15_PT048H.grib2 2026-04-24 16:08 1.1M
20260424T12Z_MSC_GDPS_RelativeHumidity_IsbL-0700_LatLon0.15_PT048H.grib2 2026-04-24 16:08 1.2M
20260424T12Z_MSC_GDPS_RelativeHumidity_IsbL-0750_LatLon0.15_PT048H.grib2 2026-04-24 16:08 1.2M
20260424T12Z_MSC_GDPS_RelativeHumidity_IsbL-0800_LatLon0.15_PT048H.grib2 2026-04-24 16:08 1.3M
20260424T12Z_MSC_GDPS_RelativeHumidity_IsbL-0850_LatLon0.15_PT048H.grib2 2026-04-24 16:08 1.3M
20260424T12Z_MSC_GDPS_RelativeHumidity_IsbL-0875_LatLon0.15_PT048H.grib2 2026-04-24 16:08 1.3M
20260424T12Z_MSC_GDPS_RelativeHumidity_IsbL-0900_LatLon0.15_PT048H.grib2 2026-04-24 16:08 1.2M
20260424T12Z_MSC_GDPS_RelativeHumidity_IsbL-0925_LatLon0.15_PT048H.grib2 2026-04-24 16:08 1.2M
20260424T12Z_MSC_GDPS_RelativeHumidity_IsbL-0950_LatLon0.15_PT048H.grib2 2026-04-24 16:08 1.2M
20260424T12Z_MSC_GDPS_RelativeHumidity_IsbL-0970_LatLon0.15_PT048H.grib2 2026-04-24 16:08 1.2M
20260424T12Z_MSC_GDPS_RelativeHumidity_IsbL-0985_LatLon0.15_PT048H.grib2 2026-04-24 16:08 1.2M
20260424T12Z_MSC_GDPS_RelativeHumidity_IsbL-1000_LatLon0.15_PT048H.grib2 2026-04-24 16:08 1.1M
20260424T12Z_MSC_GDPS_RelativeHumidity_IsbL-1015_LatLon0.15_PT048H.grib2 2026-04-24 16:08 1.1M
20260424T12Z_MSC_GDPS_RelativeVorticity_IsbL-0200_LatLon0.15_PT048H.grib2 2026-04-24 16:08 1.5M
20260424T12Z_MSC_GDPS_RelativeVorticity_IsbL-0250_LatLon0.15_PT048H.grib2 2026-04-24 16:08 1.3M
20260424T12Z_MSC_GDPS_RelativeVorticity_IsbL-0500_LatLon0.15_PT048H.grib2 2026-04-24 16:08 1.5M
20260424T12Z_MSC_GDPS_RelativeVorticity_IsbL-0700_LatLon0.15_PT048H.grib2 2026-04-24 16:08 1.6M
20260424T12Z_MSC_GDPS_RelativeVorticity_IsbL-0850_LatLon0.15_PT048H.grib2 2026-04-24 16:08 1.6M
20260424T12Z_MSC_GDPS_Runoff-Accum_Sfc_LatLon0.15_PT048H.grib2 2026-04-24 16:08 115K
20260424T12Z_MSC_GDPS_SensibleHeatNetFlux_Sfc_LatLon0.15_PT048H.grib2 2026-04-24 16:08 479K
20260424T12Z_MSC_GDPS_ShowalterIndex_IsbL-0500_LatLon0.15_PT048H.grib2 2026-04-24 16:08 6.2M
20260424T12Z_MSC_GDPS_Snow-Accum12h_Sfc_LatLon0.15_PT048H.grib2 2026-04-24 16:08 1.6M
20260424T12Z_MSC_GDPS_Snow-Accum1h_Sfc_LatLon0.15_PT048H.grib2 2026-04-24 16:08 1.2M
20260424T12Z_MSC_GDPS_Snow-Accum24h_Sfc_LatLon0.15_PT048H.grib2 2026-04-24 16:08 1.8M
20260424T12Z_MSC_GDPS_Snow-Accum3h_Sfc_LatLon0.15_PT048H.grib2 2026-04-24 16:08 1.1M
20260424T12Z_MSC_GDPS_Snow-Accum6h_Sfc_LatLon0.15_PT048H.grib2 2026-04-24 16:08 1.5M
20260424T12Z_MSC_GDPS_Snow-Accum_Sfc_LatLon0.15_PT048H.grib2 2026-04-24 16:08 2.0M
20260424T12Z_MSC_GDPS_SnowDensity_Sfc_LatLon0.15_PT048H.grib2 2026-04-24 16:08 267K
20260424T12Z_MSC_GDPS_SnowDepth_Sfc_LatLon0.15_PT048H.grib2 2026-04-24 16:08 1.8M
20260424T12Z_MSC_GDPS_SoilTemp_DBS-0to10cm_LatLon0.15_PT048H.grib2 2026-04-24 16:08 503K
20260424T12Z_MSC_GDPS_SoilTemp_Sfc_LatLon0.15_PT048H.grib2 2026-04-24 16:08 572K
20260424T12Z_MSC_GDPS_SoilVolumetricIceContent_Sfc_LatLon0.15_PT048H.grib2 2026-04-24 16:08 215K
20260424T12Z_MSC_GDPS_SoilVolumetricWaterContent_DBS-0to10cm_LatLon0.15_PT048H.grib2 2026-04-24 16:08 566K
20260424T12Z_MSC_GDPS_SoilVolumetricWaterContent_DBS-0to1cm_LatLon0.15_PT048H.grib2 2026-04-24 16:08 649K
20260424T12Z_MSC_GDPS_SpecificHumidity_AGL-120m_LatLon0.15_PT048H.grib2 2026-04-24 16:08 1.1M
20260424T12Z_MSC_GDPS_SpecificHumidity_AGL-2m_LatLon0.15_PT048H.grib2 2026-04-24 16:08 1.2M
20260424T12Z_MSC_GDPS_SpecificHumidity_AGL-40m_LatLon0.15_PT048H.grib2 2026-04-24 16:08 1.1M
20260424T12Z_MSC_GDPS_SpecificHumidity_AGL-80m_LatLon0.15_PT048H.grib2 2026-04-24 16:08 1.1M
20260424T12Z_MSC_GDPS_SpecificHumidity_IsbL-0001_LatLon0.15_PT048H.grib2 2026-04-24 16:08 1.3M
20260424T12Z_MSC_GDPS_SpecificHumidity_IsbL-0005_LatLon0.15_PT048H.grib2 2026-04-24 16:08 1.2M
20260424T12Z_MSC_GDPS_SpecificHumidity_IsbL-0010_LatLon0.15_PT048H.grib2 2026-04-24 16:08 1.3M
20260424T12Z_MSC_GDPS_SpecificHumidity_IsbL-0020_LatLon0.15_PT048H.grib2 2026-04-24 16:08 1.4M
20260424T12Z_MSC_GDPS_SpecificHumidity_IsbL-0030_LatLon0.15_PT048H.grib2 2026-04-24 16:08 1.7M
20260424T12Z_MSC_GDPS_SpecificHumidity_IsbL-0050_LatLon0.15_PT048H.grib2 2026-04-24 16:08 1.4M
20260424T12Z_MSC_GDPS_SpecificHumidity_IsbL-0100_LatLon0.15_PT048H.grib2 2026-04-24 16:08 1.3M
20260424T12Z_MSC_GDPS_SpecificHumidity_IsbL-0150_LatLon0.15_PT048H.grib2 2026-04-24 16:08 1.0M
20260424T12Z_MSC_GDPS_SpecificHumidity_IsbL-0175_LatLon0.15_PT048H.grib2 2026-04-24 16:08 1.3M
20260424T12Z_MSC_GDPS_SpecificHumidity_IsbL-0200_LatLon0.15_PT048H.grib2 2026-04-24 16:08 1.3M
20260424T12Z_MSC_GDPS_SpecificHumidity_IsbL-0225_LatLon0.15_PT048H.grib2 2026-04-24 16:08 1.3M
20260424T12Z_MSC_GDPS_SpecificHumidity_IsbL-0250_LatLon0.15_PT048H.grib2 2026-04-24 16:08 1.4M
20260424T12Z_MSC_GDPS_SpecificHumidity_IsbL-0275_LatLon0.15_PT048H.grib2 2026-04-24 16:08 1.3M
20260424T12Z_MSC_GDPS_SpecificHumidity_IsbL-0300_LatLon0.15_PT048H.grib2 2026-04-24 16:08 1.2M
20260424T12Z_MSC_GDPS_SpecificHumidity_IsbL-0350_LatLon0.15_PT048H.grib2 2026-04-24 16:08 1.5M
20260424T12Z_MSC_GDPS_SpecificHumidity_IsbL-0400_LatLon0.15_PT048H.grib2 2026-04-24 16:08 1.5M
20260424T12Z_MSC_GDPS_SpecificHumidity_IsbL-0450_LatLon0.15_PT048H.grib2 2026-04-24 16:08 1.6M
20260424T12Z_MSC_GDPS_SpecificHumidity_IsbL-0500_LatLon0.15_PT048H.grib2 2026-04-24 16:08 1.4M
20260424T12Z_MSC_GDPS_SpecificHumidity_IsbL-0550_LatLon0.15_PT048H.grib2 2026-04-24 16:08 1.6M
20260424T12Z_MSC_GDPS_SpecificHumidity_IsbL-0600_LatLon0.15_PT048H.grib2 2026-04-24 16:08 1.7M
20260424T12Z_MSC_GDPS_SpecificHumidity_IsbL-0650_LatLon0.15_PT048H.grib2 2026-04-24 16:08 1.5M
20260424T12Z_MSC_GDPS_SpecificHumidity_IsbL-0700_LatLon0.15_PT048H.grib2 2026-04-24 16:08 1.6M
20260424T12Z_MSC_GDPS_SpecificHumidity_IsbL-0750_LatLon0.15_PT048H.grib2 2026-04-24 16:08 1.7M
20260424T12Z_MSC_GDPS_SpecificHumidity_IsbL-0800_LatLon0.15_PT048H.grib2 2026-04-24 16:08 1.9M
20260424T12Z_MSC_GDPS_SpecificHumidity_IsbL-0850_LatLon0.15_PT048H.grib2 2026-04-24 16:08 1.9M
20260424T12Z_MSC_GDPS_SpecificHumidity_IsbL-0875_LatLon0.15_PT048H.grib2 2026-04-24 16:08 1.9M
20260424T12Z_MSC_GDPS_SpecificHumidity_IsbL-0900_LatLon0.15_PT048H.grib2 2026-04-24 16:08 1.9M
20260424T12Z_MSC_GDPS_SpecificHumidity_IsbL-0925_LatLon0.15_PT048H.grib2 2026-04-24 16:08 1.6M
20260424T12Z_MSC_GDPS_SpecificHumidity_IsbL-0950_LatLon0.15_PT048H.grib2 2026-04-24 16:08 1.6M
20260424T12Z_MSC_GDPS_SpecificHumidity_IsbL-0970_LatLon0.15_PT048H.grib2 2026-04-24 16:08 1.5M
20260424T12Z_MSC_GDPS_SpecificHumidity_IsbL-0985_LatLon0.15_PT048H.grib2 2026-04-24 16:08 1.5M
20260424T12Z_MSC_GDPS_SpecificHumidity_IsbL-1000_LatLon0.15_PT048H.grib2 2026-04-24 16:08 1.5M
20260424T12Z_MSC_GDPS_SpecificHumidity_IsbL-1015_LatLon0.15_PT048H.grib2 2026-04-24 16:08 1.4M
20260424T12Z_MSC_GDPS_SpecificHumidity_Sfc_LatLon0.15_PT048H.grib2 2026-04-24 16:08 675K
20260424T12Z_MSC_GDPS_Thickness_IsbL-0850to0700_LatLon0.15_PT048H.grib2 2026-04-24 16:08 467K
20260424T12Z_MSC_GDPS_Thickness_IsbL-1000to0500_LatLon0.15_PT048H.grib2 2026-04-24 16:08 373K
20260424T12Z_MSC_GDPS_Thickness_IsbL-1000to0850_LatLon0.15_PT048H.grib2 2026-04-24 16:08 489K
20260424T12Z_MSC_GDPS_TotalCloudCover_Sfc_LatLon0.15_PT048H.grib2 2026-04-24 16:08 842K
20260424T12Z_MSC_GDPS_TotalTotalsIndex_Sfc_LatLon0.15_PT048H.grib2 2026-04-24 16:08 6.2M
20260424T12Z_MSC_GDPS_UVIndex-ClearSky_Sfc_LatLon0.15_PT048H.grib2 2026-04-24 16:49 1.0M
20260424T12Z_MSC_GDPS_UVIndex_Sfc_LatLon0.15_PT048H.grib2 2026-04-24 16:49 1.5M
20260424T12Z_MSC_GDPS_UpwardLongwaveRadiationFlux_NTAtm_LatLon0.15_PT048H.grib2 2026-04-24 16:08 842K
20260424T12Z_MSC_GDPS_VerticalVelocity_IsbL-0200_LatLon0.15_PT048H.grib2 2026-04-24 16:08 935K
20260424T12Z_MSC_GDPS_VerticalVelocity_IsbL-0250_LatLon0.15_PT048H.grib2 2026-04-24 16:08 1.0M
20260424T12Z_MSC_GDPS_VerticalVelocity_IsbL-0500_LatLon0.15_PT048H.grib2 2026-04-24 16:08 1.2M
20260424T12Z_MSC_GDPS_VerticalVelocity_IsbL-0600_LatLon0.15_PT048H.grib2 2026-04-24 16:08 1.3M
20260424T12Z_MSC_GDPS_VerticalVelocity_IsbL-0700_LatLon0.15_PT048H.grib2 2026-04-24 16:08 1.4M
20260424T12Z_MSC_GDPS_VerticalVelocity_IsbL-0850_LatLon0.15_PT048H.grib2 2026-04-24 16:08 1.3M
20260424T12Z_MSC_GDPS_WindChill_Sfc_LatLon0.15_PT048H.grib2 2026-04-24 16:08 5.3M
20260424T12Z_MSC_GDPS_WindDir_AGL-10m_LatLon0.15_PT048H.grib2 2026-04-24 16:08 1.3M
20260424T12Z_MSC_GDPS_WindDir_AGL-120m_LatLon0.15_PT048H.grib2 2026-04-24 16:08 1.4M
20260424T12Z_MSC_GDPS_WindDir_AGL-40m_LatLon0.15_PT048H.grib2 2026-04-24 16:08 1.4M
20260424T12Z_MSC_GDPS_WindDir_AGL-80m_LatLon0.15_PT048H.grib2 2026-04-24 16:08 1.4M
20260424T12Z_MSC_GDPS_WindDir_IsbL-0001_LatLon0.15_PT048H.grib2 2026-04-24 16:08 652K
20260424T12Z_MSC_GDPS_WindDir_IsbL-0005_LatLon0.15_PT048H.grib2 2026-04-24 16:08 797K
20260424T12Z_MSC_GDPS_WindDir_IsbL-0010_LatLon0.15_PT048H.grib2 2026-04-24 16:08 859K
20260424T12Z_MSC_GDPS_WindDir_IsbL-0020_LatLon0.15_PT048H.grib2 2026-04-24 16:08 945K
20260424T12Z_MSC_GDPS_WindDir_IsbL-0030_LatLon0.15_PT048H.grib2 2026-04-24 16:08 934K
20260424T12Z_MSC_GDPS_WindDir_IsbL-0050_LatLon0.15_PT048H.grib2 2026-04-24 16:08 956K
20260424T12Z_MSC_GDPS_WindDir_IsbL-0100_LatLon0.15_PT048H.grib2 2026-04-24 16:08 1.0M
20260424T12Z_MSC_GDPS_WindDir_IsbL-0150_LatLon0.15_PT048H.grib2 2026-04-24 16:08 1.0M
20260424T12Z_MSC_GDPS_WindDir_IsbL-0175_LatLon0.15_PT048H.grib2 2026-04-24 16:08 1.0M
20260424T12Z_MSC_GDPS_WindDir_IsbL-0200_LatLon0.15_PT048H.grib2 2026-04-24 16:08 1.1M
20260424T12Z_MSC_GDPS_WindDir_IsbL-0225_LatLon0.15_PT048H.grib2 2026-04-24 16:08 1.1M
20260424T12Z_MSC_GDPS_WindDir_IsbL-0250_LatLon0.15_PT048H.grib2 2026-04-24 16:08 1.1M
20260424T12Z_MSC_GDPS_WindDir_IsbL-0275_LatLon0.15_PT048H.grib2 2026-04-24 16:08 1.2M
20260424T12Z_MSC_GDPS_WindDir_IsbL-0300_LatLon0.15_PT048H.grib2 2026-04-24 16:08 1.2M
20260424T12Z_MSC_GDPS_WindDir_IsbL-0350_LatLon0.15_PT048H.grib2 2026-04-24 16:08 1.2M
20260424T12Z_MSC_GDPS_WindDir_IsbL-0400_LatLon0.15_PT048H.grib2 2026-04-24 16:08 1.3M
20260424T12Z_MSC_GDPS_WindDir_IsbL-0450_LatLon0.15_PT048H.grib2 2026-04-24 16:08 1.3M
20260424T12Z_MSC_GDPS_WindDir_IsbL-0500_LatLon0.15_PT048H.grib2 2026-04-24 16:08 1.3M
20260424T12Z_MSC_GDPS_WindDir_IsbL-0550_LatLon0.15_PT048H.grib2 2026-04-24 16:08 1.4M
20260424T12Z_MSC_GDPS_WindDir_IsbL-0600_LatLon0.15_PT048H.grib2 2026-04-24 16:08 1.5M
20260424T12Z_MSC_GDPS_WindDir_IsbL-0650_LatLon0.15_PT048H.grib2 2026-04-24 16:08 1.6M
20260424T12Z_MSC_GDPS_WindDir_IsbL-0700_LatLon0.15_PT048H.grib2 2026-04-24 16:08 1.6M
20260424T12Z_MSC_GDPS_WindDir_IsbL-0750_LatLon0.15_PT048H.grib2 2026-04-24 16:08 1.7M
20260424T12Z_MSC_GDPS_WindDir_IsbL-0800_LatLon0.15_PT048H.grib2 2026-04-24 16:08 1.9M
20260424T12Z_MSC_GDPS_WindDir_IsbL-0850_LatLon0.15_PT048H.grib2 2026-04-24 16:08 2.0M
20260424T12Z_MSC_GDPS_WindDir_IsbL-0875_LatLon0.15_PT048H.grib2 2026-04-24 16:08 2.0M
20260424T12Z_MSC_GDPS_WindDir_IsbL-0900_LatLon0.15_PT048H.grib2 2026-04-24 16:08 2.0M
20260424T12Z_MSC_GDPS_WindDir_IsbL-0925_LatLon0.15_PT048H.grib2 2026-04-24 16:08 2.0M
20260424T12Z_MSC_GDPS_WindDir_IsbL-0950_LatLon0.15_PT048H.grib2 2026-04-24 16:08 2.0M
20260424T12Z_MSC_GDPS_WindDir_IsbL-0970_LatLon0.15_PT048H.grib2 2026-04-24 16:08 2.0M
20260424T12Z_MSC_GDPS_WindDir_IsbL-0985_LatLon0.15_PT048H.grib2 2026-04-24 16:08 2.0M
20260424T12Z_MSC_GDPS_WindDir_IsbL-1000_LatLon0.15_PT048H.grib2 2026-04-24 16:08 2.1M
20260424T12Z_MSC_GDPS_WindDir_IsbL-1015_LatLon0.15_PT048H.grib2 2026-04-24 16:08 2.0M
20260424T12Z_MSC_GDPS_WindGust-Max_AGL-10m_LatLon0.15_PT048H.grib2 2026-04-24 16:08 2.3M
20260424T12Z_MSC_GDPS_WindGust-Min_AGL-10m_LatLon0.15_PT048H.grib2 2026-04-24 16:08 2.2M
20260424T12Z_MSC_GDPS_WindGust_AGL-10m_LatLon0.15_PT048H.grib2 2026-04-24 16:08 2.2M
20260424T12Z_MSC_GDPS_WindSpeed_AGL-10m_LatLon0.15_PT048H.grib2 2026-04-24 16:08 1.1M
20260424T12Z_MSC_GDPS_WindSpeed_AGL-120m_LatLon0.15_PT048H.grib2 2026-04-24 16:08 1.2M
20260424T12Z_MSC_GDPS_WindSpeed_AGL-40m_LatLon0.15_PT048H.grib2 2026-04-24 16:08 1.2M
20260424T12Z_MSC_GDPS_WindSpeed_AGL-80m_LatLon0.15_PT048H.grib2 2026-04-24 16:08 1.2M
20260424T12Z_MSC_GDPS_WindSpeed_IsbL-0001_LatLon0.15_PT048H.grib2 2026-04-24 16:08 643K
20260424T12Z_MSC_GDPS_WindSpeed_IsbL-0005_LatLon0.15_PT048H.grib2 2026-04-24 16:08 616K
20260424T12Z_MSC_GDPS_WindSpeed_IsbL-0010_LatLon0.15_PT048H.grib2 2026-04-24 16:08 631K
20260424T12Z_MSC_GDPS_WindSpeed_IsbL-0020_LatLon0.15_PT048H.grib2 2026-04-24 16:08 862K
20260424T12Z_MSC_GDPS_WindSpeed_IsbL-0030_LatLon0.15_PT048H.grib2 2026-04-24 16:08 865K
20260424T12Z_MSC_GDPS_WindSpeed_IsbL-0050_LatLon0.15_PT048H.grib2 2026-04-24 16:08 1.0M
20260424T12Z_MSC_GDPS_WindSpeed_IsbL-0100_LatLon0.15_PT048H.grib2 2026-04-24 16:08 1.1M
20260424T12Z_MSC_GDPS_WindSpeed_IsbL-0150_LatLon0.15_PT048H.grib2 2026-04-24 16:08 1.0M
20260424T12Z_MSC_GDPS_WindSpeed_IsbL-0175_LatLon0.15_PT048H.grib2 2026-04-24 16:08 1.0M
20260424T12Z_MSC_GDPS_WindSpeed_IsbL-0200_LatLon0.15_PT048H.grib2 2026-04-24 16:08 1.0M
20260424T12Z_MSC_GDPS_WindSpeed_IsbL-0225_LatLon0.15_PT048H.grib2 2026-04-24 16:08 1.1M
20260424T12Z_MSC_GDPS_WindSpeed_IsbL-0250_LatLon0.15_PT048H.grib2 2026-04-24 16:08 1.1M
20260424T12Z_MSC_GDPS_WindSpeed_IsbL-0275_LatLon0.15_PT048H.grib2 2026-04-24 16:08 1.1M
20260424T12Z_MSC_GDPS_WindSpeed_IsbL-0300_LatLon0.15_PT048H.grib2 2026-04-24 16:08 1.1M
20260424T12Z_MSC_GDPS_WindSpeed_IsbL-0350_LatLon0.15_PT048H.grib2 2026-04-24 16:08 1.1M
20260424T12Z_MSC_GDPS_WindSpeed_IsbL-0400_LatLon0.15_PT048H.grib2 2026-04-24 16:08 1.1M
20260424T12Z_MSC_GDPS_WindSpeed_IsbL-0450_LatLon0.15_PT048H.grib2 2026-04-24 16:08 1.1M
20260424T12Z_MSC_GDPS_WindSpeed_IsbL-0500_LatLon0.15_PT048H.grib2 2026-04-24 16:08 1.1M
20260424T12Z_MSC_GDPS_WindSpeed_IsbL-0550_LatLon0.15_PT048H.grib2 2026-04-24 16:08 1.1M
20260424T12Z_MSC_GDPS_WindSpeed_IsbL-0600_LatLon0.15_PT048H.grib2 2026-04-24 16:08 1.4M
20260424T12Z_MSC_GDPS_WindSpeed_IsbL-0650_LatLon0.15_PT048H.grib2 2026-04-24 16:08 1.5M
20260424T12Z_MSC_GDPS_WindSpeed_IsbL-0700_LatLon0.15_PT048H.grib2 2026-04-24 16:08 1.5M
20260424T12Z_MSC_GDPS_WindSpeed_IsbL-0750_LatLon0.15_PT048H.grib2 2026-04-24 16:08 1.7M
20260424T12Z_MSC_GDPS_WindSpeed_IsbL-0800_LatLon0.15_PT048H.grib2 2026-04-24 16:08 1.8M
20260424T12Z_MSC_GDPS_WindSpeed_IsbL-0850_LatLon0.15_PT048H.grib2 2026-04-24 16:08 1.9M
20260424T12Z_MSC_GDPS_WindSpeed_IsbL-0875_LatLon0.15_PT048H.grib2 2026-04-24 16:08 1.9M
20260424T12Z_MSC_GDPS_WindSpeed_IsbL-0900_LatLon0.15_PT048H.grib2 2026-04-24 16:08 1.8M
20260424T12Z_MSC_GDPS_WindSpeed_IsbL-0925_LatLon0.15_PT048H.grib2 2026-04-24 16:08 1.9M
20260424T12Z_MSC_GDPS_WindSpeed_IsbL-0950_LatLon0.15_PT048H.grib2 2026-04-24 16:08 1.9M
20260424T12Z_MSC_GDPS_WindSpeed_IsbL-0970_LatLon0.15_PT048H.grib2 2026-04-24 16:08 1.9M
20260424T12Z_MSC_GDPS_WindSpeed_IsbL-0985_LatLon0.15_PT048H.grib2 2026-04-24 16:08 1.9M
20260424T12Z_MSC_GDPS_WindSpeed_IsbL-1000_LatLon0.15_PT048H.grib2 2026-04-24 16:08 1.8M
20260424T12Z_MSC_GDPS_WindSpeed_IsbL-1015_LatLon0.15_PT048H.grib2 2026-04-24 16:08 1.8M
20260424T12Z_MSC_GDPS_WindU_AGL-10m_LatLon0.15_PT048H.grib2 2026-04-24 16:08 1.3M
20260424T12Z_MSC_GDPS_WindU_AGL-120m_LatLon0.15_PT048H.grib2 2026-04-24 16:08 1.0M
20260424T12Z_MSC_GDPS_WindU_AGL-40m_LatLon0.15_PT048H.grib2 2026-04-24 16:08 970K
20260424T12Z_MSC_GDPS_WindU_AGL-80m_LatLon0.15_PT048H.grib2 2026-04-24 16:08 1.0M
20260424T12Z_MSC_GDPS_WindU_IsbL-0001_LatLon0.15_PT048H.grib2 2026-04-24 16:08 502K
20260424T12Z_MSC_GDPS_WindU_IsbL-0005_LatLon0.15_PT048H.grib2 2026-04-24 16:08 695K
20260424T12Z_MSC_GDPS_WindU_IsbL-0010_LatLon0.15_PT048H.grib2 2026-04-24 16:08 708K
20260424T12Z_MSC_GDPS_WindU_IsbL-0020_LatLon0.15_PT048H.grib2 2026-04-24 16:08 738K
20260424T12Z_MSC_GDPS_WindU_IsbL-0030_LatLon0.15_PT048H.grib2 2026-04-24 16:08 741K
20260424T12Z_MSC_GDPS_WindU_IsbL-0050_LatLon0.15_PT048H.grib2 2026-04-24 16:08 699K
20260424T12Z_MSC_GDPS_WindU_IsbL-0100_LatLon0.15_PT048H.grib2 2026-04-24 16:08 906K
20260424T12Z_MSC_GDPS_WindU_IsbL-0150_LatLon0.15_PT048H.grib2 2026-04-24 16:08 1.0M
20260424T12Z_MSC_GDPS_WindU_IsbL-0175_LatLon0.15_PT048H.grib2 2026-04-24 16:08 1.0M
20260424T12Z_MSC_GDPS_WindU_IsbL-0200_LatLon0.15_PT048H.grib2 2026-04-24 16:08 1.0M
20260424T12Z_MSC_GDPS_WindU_IsbL-0225_LatLon0.15_PT048H.grib2 2026-04-24 16:08 847K
20260424T12Z_MSC_GDPS_WindU_IsbL-0250_LatLon0.15_PT048H.grib2 2026-04-24 16:08 849K
20260424T12Z_MSC_GDPS_WindU_IsbL-0275_LatLon0.15_PT048H.grib2 2026-04-24 16:08 878K
20260424T12Z_MSC_GDPS_WindU_IsbL-0300_LatLon0.15_PT048H.grib2 2026-04-24 16:08 872K
20260424T12Z_MSC_GDPS_WindU_IsbL-0350_LatLon0.15_PT048H.grib2 2026-04-24 16:08 889K
20260424T12Z_MSC_GDPS_WindU_IsbL-0400_LatLon0.15_PT048H.grib2 2026-04-24 16:08 890K
20260424T12Z_MSC_GDPS_WindU_IsbL-0450_LatLon0.15_PT048H.grib2 2026-04-24 16:08 889K
20260424T12Z_MSC_GDPS_WindU_IsbL-0500_LatLon0.15_PT048H.grib2 2026-04-24 16:08 1.1M
20260424T12Z_MSC_GDPS_WindU_IsbL-0550_LatLon0.15_PT048H.grib2 2026-04-24 16:08 1.1M
20260424T12Z_MSC_GDPS_WindU_IsbL-0600_LatLon0.15_PT048H.grib2 2026-04-24 16:08 1.2M
20260424T12Z_MSC_GDPS_WindU_IsbL-0650_LatLon0.15_PT048H.grib2 2026-04-24 16:08 1.2M
20260424T12Z_MSC_GDPS_WindU_IsbL-0700_LatLon0.15_PT048H.grib2 2026-04-24 16:08 1.2M
20260424T12Z_MSC_GDPS_WindU_IsbL-0750_LatLon0.15_PT048H.grib2 2026-04-24 16:08 1.3M
20260424T12Z_MSC_GDPS_WindU_IsbL-0800_LatLon0.15_PT048H.grib2 2026-04-24 16:08 1.4M
20260424T12Z_MSC_GDPS_WindU_IsbL-0850_LatLon0.15_PT048H.grib2 2026-04-24 16:08 1.4M
20260424T12Z_MSC_GDPS_WindU_IsbL-0875_LatLon0.15_PT048H.grib2 2026-04-24 16:08 1.5M
20260424T12Z_MSC_GDPS_WindU_IsbL-0900_LatLon0.15_PT048H.grib2 2026-04-24 16:08 1.5M
20260424T12Z_MSC_GDPS_WindU_IsbL-0925_LatLon0.15_PT048H.grib2 2026-04-24 16:08 1.5M
20260424T12Z_MSC_GDPS_WindU_IsbL-0950_LatLon0.15_PT048H.grib2 2026-04-24 16:08 1.4M
20260424T12Z_MSC_GDPS_WindU_IsbL-0970_LatLon0.15_PT048H.grib2 2026-04-24 16:08 1.4M
20260424T12Z_MSC_GDPS_WindU_IsbL-0985_LatLon0.15_PT048H.grib2 2026-04-24 16:08 1.4M
20260424T12Z_MSC_GDPS_WindU_IsbL-1000_LatLon0.15_PT048H.grib2 2026-04-24 16:08 1.4M
20260424T12Z_MSC_GDPS_WindU_IsbL-1015_LatLon0.15_PT048H.grib2 2026-04-24 16:08 1.3M
20260424T12Z_MSC_GDPS_WindV_AGL-10m_LatLon0.15_PT048H.grib2 2026-04-24 16:08 1.6M
20260424T12Z_MSC_GDPS_WindV_AGL-120m_LatLon0.15_PT048H.grib2 2026-04-24 16:08 1.0M
20260424T12Z_MSC_GDPS_WindV_AGL-40m_LatLon0.15_PT048H.grib2 2026-04-24 16:08 1.2M
20260424T12Z_MSC_GDPS_WindV_AGL-80m_LatLon0.15_PT048H.grib2 2026-04-24 16:08 1.0M
20260424T12Z_MSC_GDPS_WindV_IsbL-0001_LatLon0.15_PT048H.grib2 2026-04-24 16:08 706K
20260424T12Z_MSC_GDPS_WindV_IsbL-0005_LatLon0.15_PT048H.grib2 2026-04-24 16:08 857K
20260424T12Z_MSC_GDPS_WindV_IsbL-0010_LatLon0.15_PT048H.grib2 2026-04-24 16:08 887K
20260424T12Z_MSC_GDPS_WindV_IsbL-0020_LatLon0.15_PT048H.grib2 2026-04-24 16:08 852K
20260424T12Z_MSC_GDPS_WindV_IsbL-0030_LatLon0.15_PT048H.grib2 2026-04-24 16:08 852K
20260424T12Z_MSC_GDPS_WindV_IsbL-0050_LatLon0.15_PT048H.grib2 2026-04-24 16:08 905K
20260424T12Z_MSC_GDPS_WindV_IsbL-0100_LatLon0.15_PT048H.grib2 2026-04-24 16:08 1.0M
20260424T12Z_MSC_GDPS_WindV_IsbL-0150_LatLon0.15_PT048H.grib2 2026-04-24 16:08 1.0M
20260424T12Z_MSC_GDPS_WindV_IsbL-0175_LatLon0.15_PT048H.grib2 2026-04-24 16:08 1.0M
20260424T12Z_MSC_GDPS_WindV_IsbL-0200_LatLon0.15_PT048H.grib2 2026-04-24 16:08 833K
20260424T12Z_MSC_GDPS_WindV_IsbL-0225_LatLon0.15_PT048H.grib2 2026-04-24 16:08 842K
20260424T12Z_MSC_GDPS_WindV_IsbL-0250_LatLon0.15_PT048H.grib2 2026-04-24 16:08 843K
20260424T12Z_MSC_GDPS_WindV_IsbL-0275_LatLon0.15_PT048H.grib2 2026-04-24 16:08 872K
20260424T12Z_MSC_GDPS_WindV_IsbL-0300_LatLon0.15_PT048H.grib2 2026-04-24 16:08 864K
20260424T12Z_MSC_GDPS_WindV_IsbL-0350_LatLon0.15_PT048H.grib2 2026-04-24 16:08 880K
20260424T12Z_MSC_GDPS_WindV_IsbL-0400_LatLon0.15_PT048H.grib2 2026-04-24 16:08 878K
20260424T12Z_MSC_GDPS_WindV_IsbL-0450_LatLon0.15_PT048H.grib2 2026-04-24 16:08 877K
20260424T12Z_MSC_GDPS_WindV_IsbL-0500_LatLon0.15_PT048H.grib2 2026-04-24 16:08 1.1M
20260424T12Z_MSC_GDPS_WindV_IsbL-0550_LatLon0.15_PT048H.grib2 2026-04-24 16:08 1.1M
20260424T12Z_MSC_GDPS_WindV_IsbL-0600_LatLon0.15_PT048H.grib2 2026-04-24 16:08 1.1M
20260424T12Z_MSC_GDPS_WindV_IsbL-0650_LatLon0.15_PT048H.grib2 2026-04-24 16:08 1.1M
20260424T12Z_MSC_GDPS_WindV_IsbL-0700_LatLon0.15_PT048H.grib2 2026-04-24 16:08 1.2M
20260424T12Z_MSC_GDPS_WindV_IsbL-0750_LatLon0.15_PT048H.grib2 2026-04-24 16:08 1.2M
20260424T12Z_MSC_GDPS_WindV_IsbL-0800_LatLon0.15_PT048H.grib2 2026-04-24 16:08 1.3M
20260424T12Z_MSC_GDPS_WindV_IsbL-0850_LatLon0.15_PT048H.grib2 2026-04-24 16:08 1.4M
20260424T12Z_MSC_GDPS_WindV_IsbL-0875_LatLon0.15_PT048H.grib2 2026-04-24 16:08 1.4M
20260424T12Z_MSC_GDPS_WindV_IsbL-0900_LatLon0.15_PT048H.grib2 2026-04-24 16:08 1.4M
20260424T12Z_MSC_GDPS_WindV_IsbL-0925_LatLon0.15_PT048H.grib2 2026-04-24 16:08 1.4M
20260424T12Z_MSC_GDPS_WindV_IsbL-0950_LatLon0.15_PT048H.grib2 2026-04-24 16:08 1.4M
20260424T12Z_MSC_GDPS_WindV_IsbL-0970_LatLon0.15_PT048H.grib2 2026-04-24 16:08 1.4M
20260424T12Z_MSC_GDPS_WindV_IsbL-0985_LatLon0.15_PT048H.grib2 2026-04-24 16:08 1.4M
20260424T12Z_MSC_GDPS_WindV_IsbL-1000_LatLon0.15_PT048H.grib2 2026-04-24 16:08 1.4M
20260424T12Z_MSC_GDPS_WindV_IsbL-1015_LatLon0.15_PT048H.grib2 2026-04-24 16:08 1.7M